When you browse on this site, cookies collect data to enhance your experience and personalize the content and advertising you see.
Visit our Privacy Policy to learn more. By continuing to use the site, you agree to this use of cookies and data.
  • In Spain
  • List of Countries
  • For 7 days
  • Water Temperature
  • Weather Map
  • Weather Widgets
  • user-avatar
    Login

    Hourly Weather Franceville

    Today, 25 May, Monday

    Time Temperature Precipitation Wind Pressure Humidity
    00:00 +24°C° 0 mm 0 mps 732 mmHg 93%
    01:00 +23°C° 0 mm 0 mps 732 mmHg 94%
    02:00 +23°C° 0 mm 0 mps 731 mmHg 94%
    03:00 +23°C° 0 mm 0 mps 731 mmHg 95%
    04:00 +23°C° 0 mm 0 mps 730 mmHg 95%
    05:00 +23°C° 0 mm 0 mps 731 mmHg 94%
    06:00 +23°C° 0 mm 0 mps 732 mmHg 93%
    07:00 +23°C° 0 mm 0 mps 732 mmHg 92%
    08:00 +25°C° 0 mm 0 mps 732 mmHg 83%
    09:00 +29°C° 0 mm 1 mps 732 mmHg 73%
    10:00 +32°C° 0 mm 1 mps 733 mmHg 64%
    11:00 +32°C° 0.1 mm 1 mps 732 mmHg 61%
    12:00 +33°C° 0.1 mm 1 mps 732 mmHg 59%
    13:00 +34°C° 0.1 mm 1 mps 731 mmHg 56%
    14:00 +33°C° 0.3 mm 1 mps 730 mmHg 59%
    15:00 +33°C° 0.3 mm 1 mps 729 mmHg 62%
    16:00 +32°C° 0.3 mm 1 mps 729 mmHg 64%
    17:00 +31°C° 0.9 mm 1 mps 729 mmHg 71%
    18:00 +29°C° 0.9 mm 1 mps 730 mmHg 78%
    19:00 +25°C° 0.9 mm 0 mps 730 mmHg 86%
    20:00 +27°C° 0.8 mm 1 mps 730 mmHg 88%
    21:00 +27°C° 0.8 mm 1 mps 731 mmHg 89%
    22:00 +26°C° 0.8 mm 1 mps 731 mmHg 91%
    23:00 +26°C° 0 mm 1 mps 731 mmHg 92%

    Tomorrow, 26 May, Tuesday

    Time Temperature Precipitation Wind Pressure Humidity
    00:00 +24°C° 0 mm 0 mps 731 mmHg 93%
    01:00 +24°C° 0 mm 0 mps 731 mmHg 94%
    02:00 +23°C° 0.1 mm 0 mps 731 mmHg 95%
    03:00 +23°C° 0.1 mm 0 mps 731 mmHg 95%
    04:00 +23°C° 0.1 mm 0 mps 730 mmHg 96%
    05:00 +23°C° 0 mm 0 mps 731 mmHg 95%
    06:00 +23°C° 0 mm 0 mps 731 mmHg 94%
    07:00 +24°C° 0 mm 0 mps 732 mmHg 93%
    08:00 +26°C° 0 mm 0 mps 732 mmHg 84%
    09:00 +28°C° 0 mm 0 mps 732 mmHg 74%
    10:00 +32°C° 0 mm 1 mps 733 mmHg 65%
    11:00 +33°C° 0 mm 1 mps 732 mmHg 61%
    12:00 +34°C° 0 mm 1 mps 732 mmHg 57%
    13:00 +33°C° 0 mm 0 mps 731 mmHg 53%
    14:00 +32°C° 0.4 mm 0 mps 730 mmHg 57%
    15:00 +31°C° 0.4 mm 0 mps 730 mmHg 61%
    16:00 +30°C° 0.4 mm 0 mps 729 mmHg 65%
    17:00 +29°C° 0.9 mm 0 mps 730 mmHg 73%
    18:00 +27°C° 0.9 mm 0 mps 730 mmHg 82%
    19:00 +25°C° 0.9 mm 0 mps 730 mmHg 90%
    20:00 +25°C° 1.4 mm 0 mps 730 mmHg 90%
    21:00 +25°C° 1.4 mm 0 mps 731 mmHg 91%
    22:00 +24°C° 1.4 mm 0 mps 731 mmHg 92%
    23:00 +24°C° 0.1 mm 0 mps 731 mmHg 93%

    Day after tomorrow, 27 May, Wednesday

    Time Temperature Precipitation Wind Pressure Humidity
    00:00 +24°C° 0.1 mm 0 mps 731 mmHg 94%
    01:00 +25°C° 0.1 mm 1 mps 731 mmHg 96%
    02:00 +23°C° 0 mm 0 mps 731 mmHg 96%
    03:00 +23°C° 0 mm 0 mps 731 mmHg 97%
    04:00 +23°C° 0 mm 0 mps 730 mmHg 97%
    05:00 +23°C° 0.1 mm 0 mps 731 mmHg 96%
    06:00 +23°C° 0.1 mm 0 mps 731 mmHg 96%
    07:00 +23°C° 0.1 mm 0 mps 732 mmHg 95%
    08:00 +25°C° 0.1 mm 0 mps 732 mmHg 86%
    09:00 +30°C° 0.1 mm 1 mps 732 mmHg 76%
    10:00 +32°C° 0.1 mm 1 mps 733 mmHg 67%
    11:00 +32°C° 1.1 mm 1 mps 732 mmHg 66%
    12:00 +32°C° 1.1 mm 1 mps 731 mmHg 66%
    13:00 +33°C° 1.1 mm 1 mps 731 mmHg 65%
    14:00 +32°C° 1.9 mm 1 mps 730 mmHg 70%
    15:00 +29°C° 1.9 mm 0 mps 730 mmHg 76%
    16:00 +28°C° 1.9 mm 0 mps 729 mmHg 81%
    17:00 +27°C° 0.5 mm 0 mps 730 mmHg 84%
    18:00 +26°C° 0.5 mm 0 mps 730 mmHg 88%
    19:00 +25°C° 0.5 mm 0 mps 730 mmHg 91%
    20:00 +27°C° 0.1 mm 1 mps 731 mmHg 92%
    21:00 +26°C° 0.1 mm 1 mps 731 mmHg 93%
    22:00 +26°C° 0.1 mm 1 mps 732 mmHg 94%
    23:00 +26°C° 0.1 mm 1 mps 732 mmHg 94%

    28 May, Thursday

    Time Temperature Precipitation Wind Pressure Humidity
    00:00 +26°C° 0.1 mm 1 mps 731 mmHg 94%
    01:00 +25°C° 0.1 mm 1 mps 731 mmHg 94%
    02:00 +25°C° 0.8 mm 1 mps 731 mmHg 95%
    03:00 +25°C° 0.8 mm 1 mps 731 mmHg 96%
    04:00 +25°C° 0.8 mm 1 mps 731 mmHg 97%
    05:00 +25°C° 0.5 mm 1 mps 731 mmHg 96%
    06:00 +25°C° 0.5 mm 1 mps 732 mmHg 96%
    07:00 +25°C° 0.5 mm 1 mps 732 mmHg 95%
    08:00 +27°C° 0 mm 1 mps 732 mmHg 88%
    09:00 +28°C° 0 mm 1 mps 733 mmHg 81%
    10:00 +30°C° 0 mm 1 mps 733 mmHg 74%
    11:00 +31°C° 0.3 mm 1 mps 732 mmHg 68%
    12:00 +33°C° 0.3 mm 1 mps 732 mmHg 62%
    13:00 +35°C° 0.3 mm 1 mps 731 mmHg 56%
    14:00 +33°C° 0.7 mm 1 mps 730 mmHg 62%
    15:00 +32°C° 0.7 mm 1 mps 730 mmHg 68%
    16:00 +31°C° 0.7 mm 1 mps 729 mmHg 74%
    17:00 +29°C° 0.3 mm 1 mps 730 mmHg 80%
    18:00 +28°C° 0.3 mm 1 mps 730 mmHg 85%
    19:00 +27°C° 0.3 mm 1 mps 730 mmHg 91%
    20:00 +26°C° 0 mm 1 mps 731 mmHg 92%
    21:00 +26°C° 0 mm 1 mps 731 mmHg 94%
    22:00 +25°C° 0 mm 1 mps 732 mmHg 95%
    23:00 +25°C° 0 mm 1 mps 731 mmHg 96%

    29 May, Friday

    Time Temperature Precipitation Wind Pressure Humidity
    00:00 +23°C° 0 mm 0 mps 731 mmHg 96%
    01:00 +23°C° 0 mm 0 mps 731 mmHg 97%
    02:00 +23°C° 0 mm 0 mps 731 mmHg 97%
    03:00 +22°C° 0 mm 0 mps 731 mmHg 97%
    04:00 +22°C° 0 mm 0 mps 731 mmHg 97%
    05:00 +24°C° 0 mm 1 mps 731 mmHg 96%
    06:00 +25°C° 0 mm 1 mps 731 mmHg 94%
    07:00 +25°C° 0 mm 1 mps 731 mmHg 93%
    08:00 +26°C° 0 mm 1 mps 732 mmHg 86%
    09:00 +28°C° 0 mm 1 mps 732 mmHg 79%
    10:00 +30°C° 0 mm 1 mps 733 mmHg 72%
    11:00 +32°C° 0 mm 1 mps 732 mmHg 65%
    12:00 +34°C° 0 mm 1 mps 731 mmHg 58%
    13:00 +34°C° 0 mm 0 mps 730 mmHg 51%
    14:00 +33°C° 0.1 mm 0 mps 730 mmHg 52%
    15:00 +32°C° 0.1 mm 0 mps 729 mmHg 53%
    16:00 +32°C° 0.1 mm 0 mps 729 mmHg 54%
    17:00 +31°C° 1 mm 1 mps 729 mmHg 66%
    18:00 +29°C° 1 mm 1 mps 729 mmHg 78%
    19:00 +27°C° 1 mm 1 mps 729 mmHg 89%
    20:00 +27°C° 0.2 mm 1 mps 730 mmHg 90%
    21:00 +26°C° 0.2 mm 1 mps 731 mmHg 91%
    22:00 +24°C° 0.2 mm 0 mps 731 mmHg 92%
    23:00 +24°C° 0 mm 0 mps 731 mmHg 92%

    30 May, Saturday

    Time Temperature Precipitation Wind Pressure Humidity
    00:00 +24°C° 0 mm 0 mps 731 mmHg 93%
    01:00 +24°C° 0 mm 0 mps 731 mmHg 93%
    02:00 +24°C° 0 mm 0 mps 730 mmHg 94%
    03:00 +24°C° 0 mm 0 mps 730 mmHg 94%
    04:00 +23°C° 0 mm 0 mps 730 mmHg 94%
    05:00 +23°C° 0 mm 0 mps 731 mmHg 94%
    06:00 +24°C° 0 mm 0 mps 731 mmHg 94%
    07:00 +24°C° 0 mm 0 mps 731 mmHg 93%
    08:00 +24°C° 0 mm 0 mps 732 mmHg 92%
    09:00 +24°C° 0 mm 0 mps 732 mmHg 92%
    10:00 +25°C° 0 mm 0 mps 732 mmHg 91%
    11:00 +25°C° 0 mm 0 mps 732 mmHg 87%
    12:00 +28°C° 0 mm 1 mps 731 mmHg 83%
    13:00 +29°C° 0 mm 1 mps 730 mmHg 79%
    14:00 +30°C° 0 mm 1 mps 730 mmHg 73%
    15:00 +28°C° 0 mm 0 mps 729 mmHg 68%
    16:00 +29°C° 0 mm 0 mps 729 mmHg 63%
    17:00 +28°C° 0 mm 0 mps 729 mmHg 69%
    18:00 +26°C° 0 mm 0 mps 730 mmHg 75%
    19:00 +25°C° 0 mm 0 mps 730 mmHg 81%
    20:00 +27°C° 0.2 mm 1 mps 730 mmHg 83%
    21:00 +26°C° 0.2 mm 1 mps 731 mmHg 85%
    22:00 +26°C° 0.2 mm 1 mps 731 mmHg 88%
    23:00 +25°C° 0.2 mm 1 mps 731 mmHg 90%
    Show more